Showing default

GLOBALSTAR M080, 38041

Orbit data source: Space-Track

GLOBALSTAR M080, 38041 is a payload satellite owned by Globalstar (US) in LEO that was launched on Wed, 28 Dec 2011 UTC via a SOYUZ-2-1A launch vehicle from the Tyuratam Missile And Space Complex (TTMTR). Payload-class satellites include a variety of spacecraft equipped with specific instruments for various scientific and technological missions. These include communications satellites like Starlink; space stations such as the ISS; scientific satellites like the Hubble; Earth observation satellites from companies like Planet Labs, Umbra, and HawkEye 360; GPS; miniature CubeSats for education and research; and military/defense satellites.

Loading next visibility...
Identifier
38041, 2011-080B
Orbit
LEO
Country
Flag of USUS / GLOB
Related business
Manufacturer
Thales Alenia
Mission
Operational Commercial Communications
Bus & Motor
PRISMA?, LS-400 AOCS?
Mass
715 kg wet, ~500 kg dry
Launch date (UTC)
2011-12-28 (14 years ago)
Launch vehicle
SOYUZ-2-1A
Launch site
Tyuratam Missile And Space Complex (TTMTR)
Object type
Payload
Rocket body
Debris
Shape & HBR
Trap Cyl + 2 Pan, 6.0 m
Radar Cross Section
20.931 m², Large (>1 m²)

Expand to show TLE details & history
Last TLE update: 8 hours ago

TLE from 8 hours ago
0 GLOBALSTAR M080
1 38041U 11080B   26119.88245501 -.00000066  00000-0  21058-3 0  9990
2 38041  52.0041 166.0417 0000654 147.8605  23.4293 12.62268670662783
Epoch: 2026-04-29T21:10Z
TLE epoch observation values (Epoch: 2026-04-29T21:10:44.112Z)
Latitude
6.82088°
Longitude
165.18601°
Altitude
1,413.186 km
Speed
7.156 km/s
True Right ascension
22h 42m 49s
True Declination
6° 47' 02"
Sunlit
Object was in daylight at epoch
Visualization orbit readout
Latitude
Unknown
Longitude
Unknown
Altitude
Unknown
Speed
Unknown
Apparent Right ascension
Unknown
Apparent Declination
Unknown
Sunlit
N/A
Visualization observer readout
Local Sidereal Time
12:34:10
Azimuth
Unknown
Elevation
Unknown
Doppler factor
Unknown
Orbital elements
Apogee altitude
1,414.496 km
Perigee altitude
1,413.477 km
Semi-major axis
7,792.123 km
Eccentricity
0.00007
Inclination
52.0041°
RAAN
166.0417°
Arg. of periapsis
147.8605°
True anomaly
23.43228°
Mean anomaly
23.4293°
Eccentric anomaly
23.43079°
Mean motion
3.15544 °/min
Orbital period
114.09 mins
BSTAR
0.00021058
Loading maneuver chart data...
Computing Atmospheric mass density...
Loading historical data...
Loading historical data...
Loading historical data...
Loading historical data...
Loading historical data...
Loading historical data...
Loading historical data...

Documentation

Showing up to 5 results
|